QFA337 YPAD-YSSY

Flight info

Callsign QFA337
Flight time N/A
Altitude 39000
Route AD H247 CULIN Y59 TESAT
Aircraft B744/H-SDE3FGHIM1M2RWXY/LB1

Departure

Time 2026-05-05 00:08
Airport Adelaide International Airport (YPAD)

Arrival

Time N/A
Airport Sydney Kingsford Smith International Airport (YSSY)
Time Latitude Longitude Altitude Speed Heading
2026-05-05 00:08 -35.11314 138.45362 10270 ft 296 kts 106°
2026-05-05 00:08 -35.11545 138.47857 11039 ft 301 kts 86°
2026-05-05 00:08 -35.11166 138.50371 11790 ft 305 kts 76°
2026-05-05 00:08 -35.10672 138.52889 12523 ft 309 kts 78°
2026-05-05 00:09 -35.10216 138.55451 13229 ft 312 kts 80°
2026-05-05 00:09 -35.10030 138.58077 13894 ft 314 kts 90°
2026-05-05 00:09 -35.09990 138.60749 14550 ft 319 kts 88°
2026-05-05 00:09 -35.09815 138.63448 15172 ft 323 kts 85°
2026-05-05 00:10 -35.09630 138.66195 15768 ft 328 kts 86°
2026-05-05 00:10 -35.09449 138.68993 16331 ft 334 kts 86°
2026-05-05 00:10 -35.09264 138.71837 16849 ft 341 kts 86°
2026-05-05 00:10 -35.09077 138.74749 17300 ft 350 kts 86°
2026-05-05 00:11 -35.08882 138.77748 17666 ft 360 kts 86°
2026-05-05 00:11 -35.08683 138.80816 18117 ft 367 kts 86°
2026-05-05 00:11 -35.08480 138.83918 18671 ft 370 kts 86°
2026-05-05 00:11 -35.08275 138.87050 19220 ft 373 kts 86°
2026-05-05 00:12 -35.08069 138.90215 19737 ft 377 kts 86°
2026-05-05 00:12 -35.07859 138.93401 20268 ft 379 kts 86°
2026-05-05 00:12 -35.07644 138.96645 20851 ft 391 kts 86°
2026-05-05 00:12 -35.07421 138.99950 21789 ft 396 kts 86°
2026-05-05 00:13 -35.07206 139.03306 22658 ft 402 kts 86°
2026-05-05 00:13 -35.06976 139.06711 23526 ft 407 kts 86°
2026-05-05 00:13 -35.06749 139.10152 24326 ft 412 kts 86°
2026-05-05 00:13 -35.06518 139.13646 25076 ft 418 kts 86°
2026-05-05 00:14 -35.06275 139.17169 25887 ft 421 kts 86°
2026-05-05 00:14 -35.06033 139.20742 26583 ft 427 kts 86°
2026-05-05 00:14 -35.05788 139.24352 27278 ft 432 kts 86°
2026-05-05 00:14 -35.05532 139.28005 27986 ft 436 kts 86°
2026-05-05 00:15 -35.05282 139.31697 28605 ft 442 kts 86°
2026-05-05 00:15 -35.05023 139.35424 29305 ft 445 kts 86°
2026-05-05 00:15 -35.04760 139.39196 29898 ft 449 kts 86°
2026-05-05 00:15 -35.04497 139.42992 30530 ft 452 kts 86°
2026-05-05 00:16 -35.04226 139.46819 31126 ft 455 kts 86°
2026-05-05 00:16 -35.03959 139.50663 31718 ft 458 kts 87°
2026-05-05 00:16 -35.03685 139.54523 32261 ft 461 kts 87°
2026-05-05 00:16 -35.03409 139.58417 32765 ft 464 kts 87°
2026-05-05 00:17 -35.03132 139.62332 33241 ft 467 kts 87°
2026-05-05 00:17 -35.02851 139.66287 33685 ft 471 kts 86°
2026-05-05 00:17 -35.02565 139.70264 34051 ft 475 kts 86°
2026-05-05 00:17 -35.02278 139.74279 34399 ft 479 kts 86°
2026-05-05 00:18 -35.01984 139.78334 34709 ft 483 kts 86°
2026-05-05 00:18 -35.01690 139.82415 34990 ft 486 kts 86°
2026-05-05 00:18 -35.01393 139.86524 35291 ft 489 kts 86°
2026-05-05 00:18 -35.01087 139.90648 35584 ft 492 kts 86°
2026-05-05 00:19 -35.00781 139.94799 35871 ft 494 kts 86°
2026-05-05 00:19 -35.00470 139.98969 36148 ft 497 kts 85°
2026-05-05 00:19 -35.00155 140.03170 36494 ft 499 kts 85°
2026-05-05 00:19 -34.99837 140.07381 36786 ft 503 kts 85°
2026-05-05 00:20 -34.99517 140.11617 37113 ft 505 kts 85°
2026-05-05 00:20 -34.99190 140.15876 37439 ft 507 kts 85°
2026-05-05 00:20 -34.98866 140.20156 37675 ft 510 kts 85°
2026-05-05 00:20 -34.98538 140.24447 37933 ft 511 kts 85°
2026-05-05 00:21 -34.98204 140.28750 38182 ft 512 kts 85°
2026-05-05 00:21 -34.97869 140.33062 38410 ft 514 kts 85°
2026-05-05 00:21 -34.97665 140.37410 38595 ft 514 kts 91°
2026-05-05 00:21 -34.97768 140.41767 38826 ft 514 kts 92°
2026-05-05 00:22 -34.97816 140.46126 39043 ft 511 kts 91°
2026-05-05 00:22 -34.97885 140.54777 39191 ft 508 kts 91°
2026-05-05 00:23 -34.97947 140.63411 39226 ft 508 kts 91°